Location: Aurora Center
(43.5271°N, 98.5894°W)
Time: 03:07:33
(UTC-05:00)

BlueWalker 3 - Pass Details

Date: 20 June 2024
Orbit: 480 x 491 km, 53.2° (Epoch: 23 July)

Event Time Altitude Azimuth Distance (km) Brightness Sun altitude
Rises 00:13:36 0° 273° (W) 2,536 5.8 -20.4°
Reaches altitude 10° 00:16:04 10° 288° (WNW) 1,656 5.0 -20.6°
Maximum altitude 00:19:10 24° 344° (NNW) 1,034 4.3 -20.7°
Drops below altitude 10° 00:22:15 10° 40° (NE) 1,657 5.0 -20.9°
Sets 00:24:43 0° 54° (NE) 2,538 5.7 -21.1°
